Regional Weather Roundup
Issued by NWS

Home | Current Version | Previous Version | Graphics & Text | Print | Product List | Glossary On
Versions: 1 2 3 4 5 6 7 8 9 10 11 12 13 14 15 16 17 18 19 20 21 22 23 24 25 26 27 28 29 30 31 32 33 34 35 36 37 38 39 40 41 42 43 44 45 46 47 48 49 50
523
ASUS43 KLMK 200910
RWRKY
KENTUCKY REGIONAL WEATHER ROUNDUP
NATIONAL WEATHER SERVICE LOUISVILLE KY
500 AM EDT SUN MAY 20 2018

NOTE "FAIR" INDICATES FEW OR NO CLOUDS BELOW 12,000 FEET
WITH NO SIGNIFICANT WEATHER AND/OR OBSTRUCTIONS TO VISIBILITY.

KYZ001>023-026-027-061>063-070>075-201000-
WESTERN AND SOUTH CENTRAL KENTUCKY

CITY           SKY/WX    TMP DP  RH WIND       PRES   REMARKS
PADUCAH        FAIR      67  63  87 S10       29.99S
HENDERSON      NOT AVBL
OWENSBORO      FAIR      68  64  87 SE6       30.00R
HOPKINSVILLE   FAIR      66  66 100 SE6       30.04F
BOWLING GREEN  MOCLDY    69  65  86 S5        30.07F
GLASGOW        FAIR      67  63  87 CALM      30.08F
$$

KYZ024-025-028>034-038-045-046-053-201000-
NORTH CENTRAL KENTUCKY

CITY           SKY/WX    TMP DP  RH WIND       PRES   REMARKS
LOUISVILLE/SDF MOCLDY    70  65  84 SE6       30.02F
LOUISVILLE/LOU FAIR      68  66  93 E7        30.03F
FORT KNOX      FAIR      66  66 100 CALM      30.04F
$$

KYZ035>037-039>044-047>052-055>060-089>105-201000-
NORTHEAST KENTUCKY

CITY           SKY/WX    TMP DP  RH WIND       PRES   REMARKS
LEXINGTON      FAIR      68  65  90 S7        30.07S FOG
COVINGTON      MOCLDY    66  64  93 SW5       30.03R
FRANKFORT      FAIR      67  63  87 SW5       30.04F
$$

KYZ054-064>069-076>088-106>120-201000-
SOUTHEAST KENTUCKY

CITY           SKY/WX    TMP DP  RH WIND       PRES   REMARKS
JACKSON        FAIR      65  63  93 CALM      30.10R
LONDON         FAIR      64  63  96 S3        30.10S FOG
SOMERSET       FOG       64  64 100 CALM      30.11S VSB 1/2
MIDDLESBORO    CLOUDY    64  64 100 CALM      30.12S
MONTICELLO     NOT AVBL
$$





USA.gov is the U.S. government's official web portal to all federal, state and local government web resources and services.